McComb, MS

11:12 PM CDT on June 24, 2017 (GMT -0500)
McComb-Pike County-Lewis

Weather History for KMCB - June, 2013

Change the Weather History Date:

Sunday, June 30, 2013

  Actual Average Record
Temperature  
Mean Temperature 78 °F -  
Max Temperature 90 °F 91 °F 101 °F (1954)
Min Temperature 66 °F 68 °F 58 °F (1985)
Cooling Degree Days 12    
Growing Degree Days 28 (Base 50)    
Moisture  
Dew Point 64 °F    
Average Humidity 66    
Maximum Humidity 97    
Minimum Humidity 31    
Precipitation  
Precipitation 0.01 in - - ()
Sea Level Pressure  
Sea Level Pressure 29.76 in    
Wind  
Wind Speed 4 mph (NW)    
Max Wind Speed 14 mph    
Max Gust Speed 20 mph    
Visibility 10 miles    
Events      
Averages and records for this station are not official NWS values.
T = Trace of Precipitation, MM = Missing Value Source: NWS Daily Summary

Daily Weather History Graph

Daily Weather History Graph

Search for Another Location

Airport or City:

Trip Planner

Search our weather history database for the weather conditions in past years. The results will help you decide how hot, cold, wet, or windy it might be!

Date:

Astronomy

Jun. 30, 2013 Rise Set
Actual Time 6:01 AM CDT 8:09 PM CDT
Civil Twilight 5:33 AM CDT 8:37 PM CDT
Nautical Twilight 4:59 AM CDT 9:11 PM CDT
Astronomical Twilight 4:22 AM CDT 9:48 PM CDT
Moon 12:41 AM CDT (6/30) 1:41 PM CDT (6/30)
Length of Visible Light 15h 04m
Length of Day
14h 08m
Last Quarter, 45% of the Moon is Illuminated
Jun 30
Last Quarter
Jul 8
New
Jul 15
First Quarter
Jul 22
Full
Jul 29
Last Quarter

Hourly Weather History & Observations

Time (CDT) Temp. Heat Index Dew Point Humidity Pressure Visibility Wind Dir Wind Speed Gust Speed Precip Events Conditions
12:53 AM 70.0 °F - 68.0 °F 93% 29.76 in 10.0 mi Calm Calm - N/A   Clear
1:53 AM 70.0 °F - 68.0 °F 93% 29.75 in 10.0 mi Calm Calm - N/A   Clear
2:53 AM 70.0 °F - 68.0 °F 93% 29.74 in 10.0 mi Calm Calm - N/A   Clear
3:53 AM 69.1 °F - 66.9 °F 93% 29.73 in 10.0 mi Calm Calm - 0.01 in   Clear
4:53 AM 68.0 °F - 66.0 °F 93% 29.74 in 10.0 mi Calm Calm - N/A   Clear
5:53 AM 66.9 °F - 66.0 °F 97% 29.75 in 8.0 mi Calm Calm - N/A   Clear
6:53 AM 69.1 °F - 66.0 °F 90% 29.75 in 10.0 mi Calm Calm - N/A   Clear
7:53 AM 73.9 °F - 68.0 °F 82% 29.77 in 10.0 mi WNW 5.8 mph - N/A   Clear
8:53 AM 78.1 °F - 69.1 °F 74% 29.77 in 10.0 mi West 6.9 mph - N/A   Clear
9:53 AM 82.9 °F 85.4 °F 66.9 °F 58% 29.77 in 10.0 mi West 5.8 mph - N/A   Partly Cloudy
10:53 AM 84.9 °F 88.2 °F 68.0 °F 57% 29.76 in 10.0 mi WSW 4.6 mph - N/A   Clear
11:53 AM 88.0 °F 90.3 °F 66.0 °F 48% 29.76 in 10.0 mi NW 5.8 mph - N/A   Clear
12:53 PM 89.1 °F 91.0 °F 64.9 °F 45% 29.75 in 10.0 mi NW 12.7 mph - N/A   Partly Cloudy
1:53 PM 89.1 °F 88.8 °F 60.1 °F 38% 29.74 in 10.0 mi NW 13.8 mph 19.6 mph N/A   Clear
2:53 PM 89.1 °F 88.0 °F 57.9 °F 35% 29.75 in 10.0 mi NW 12.7 mph 19.6 mph N/A   Partly Cloudy
3:53 PM 89.1 °F 87.1 °F 55.0 °F 31% 29.75 in 10.0 mi NW 12.7 mph - N/A   Clear
4:53 PM 88.0 °F 86.9 °F 57.9 °F 36% 29.75 in 10.0 mi NW 12.7 mph - N/A   Clear
5:53 PM 87.1 °F 86.7 °F 60.1 °F 40% 29.75 in 10.0 mi NNW 10.4 mph - N/A   Clear
6:53 PM 86.0 °F 86.3 °F 62.1 °F 44% 29.75 in 10.0 mi NNW 9.2 mph - N/A   Clear
7:53 PM 81.0 °F 82.2 °F 63.0 °F 54% 29.77 in 10.0 mi NNW 5.8 mph - N/A   Clear
8:53 PM 77.0 °F - 64.0 °F 64% 29.79 in 10.0 mi NNW 5.8 mph - N/A   Clear
9:53 PM 73.9 °F - 64.9 °F 73% 29.81 in 10.0 mi NNW 4.6 mph - N/A   Clear
10:53 PM 73.0 °F - 64.0 °F 73% 29.82 in 10.0 mi North 4.6 mph - N/A   Clear
11:53 PM 72.0 °F - 64.9 °F 78% 29.82 in 10.0 mi NNW 3.5 mph - N/A   Clear